Location: Axtheid
(49.6213°N, 11.8205°E)
Time: 12:37:57
(UTC+00:00)

ATLAS 5 CENTAUR R/B - Pass Details

Date: 24 January 2021
Orbit: 511 x 1147 km, 63.3° (Epoch: 16 February)

Event Time Altitude Azimuth Distance (km) Brightness Sun altitude
Rises 17:24:03 0° 264° (W) 2,731 6.8 -14.2°
Reaches altitude 10° 17:26:27 10° 278° (W) 1,904 5.2 -14.6°
Maximum altitude 17:30:02 25° 335° (NNW) 1,278 3.3 -15.2°
Enters shadow 17:33:36 12° 28° (NNE) 2,020 3.8 -15.8°
